Home > Weather > Lehrte > Past weeks

Flag for Germany Past Weather in Lehrte, Lower Saxony, Germany — Yesterday and Last 2 Weeks

Now
63 °F

Drizzle. Broken clouds.


Feels Like: 63 °F
Forecast: 54 / 67 °F
Wind: 6 mph from Southwest

Location: Hannover

Current Time: Jun 27, 2016 at 10:28:28 PM

Latest Report: Jun 27, 2016 at 9:50 PM


Visibility: N/A

Pressure: 30.01 "Hg

Humidity: 88%

Dew Point: 59 °F

Location of LehrteLocation

Past Weather in Lehrte — Graph

°F

Lehrte Temperature Yesterday

Maximum temperature yesterday: 70 °F (at 3:50 PM)
Minimum temperature yesterday: 54 °F (at 2:20 AM)
Average temperature yesterday: 61 °F

High & Low Weather Summary for the Past Weeks

 TemperatureHumidityPressure
High90 °F (Jun 23, 3:20 PM)100% (Jun 13, 1:50 AM)30.24 "Hg (Jun 13, 1:50 AM)
Low50 °F (Jun 19, 11:50 PM)36% (Jun 23, 6:50 PM)29.45 "Hg (Jun 14, 5:50 PM)
Average63 °F81%29.89 "Hg
* Reported Jun 12 9:20 PM — Jun 27 9:20 PM, Lehrte, Weather by CustomWeather, © 2016

Note: Actual official high and low records may vary slightly from our data, if they occured in-between our weather recording intervals... More about our weather records

Advertising

Lehrte Weather History for the Previous 24 Hours

Scroll right to see more
 ConditionsComfort  
Time TempWeatherWind HumidityBarometerVisibility
9:20 PM
Mon, Jun 27
63 °FBroken clouds.7 mph88%30.01 "HgN/A
8:50 PM63 °FPartly sunny.6 mph88%30.01 "HgN/A
8:20 PM63 °FScattered showers. Partly sunny.7 mph88%30.01 "HgN/A
7:50 PM64 °FLight rain. Partly sunny.10 mph78%30.01 "HgN/A
7:20 PM66 °FLight rain. Partly sunny.9 mph68%30.01 "HgN/A
6:50 PM66 °FLight rain. Partly sunny.10 mph68%30.01 "HgN/A
6:20 PM68 °FPartly sunny.12 mph64%30.01 "HgN/A
5:50 PM68 °FPartly sunny.13 mph60%30.01 "HgN/A
5:20 PM72 °FBroken clouds.14 mph57%30.01 "HgN/A
4:50 PM70 °FBroken clouds.12 mph53%30.01 "HgN/A
4:20 PM70 °FBroken clouds.10 mph53%30.01 "HgN/A
3:50 PM70 °FScattered clouds.13 mph53%30.01 "HgN/A
3:20 PM72 °FPassing clouds.10 mph50%30.01 "HgN/A
2:50 PM72 °FPassing clouds.14 mph50%30.01 "HgN/A
2:20 PM70 °FPassing clouds.12 mph53%30.01 "HgN/A
1:50 PM68 °FPassing clouds.12 mph56%30.04 "HgN/A
1:20 PM70 °FPassing clouds.14 mph50%30.04 "HgN/A
12:50 PM68 °FPassing clouds.12 mph53%30.04 "HgN/A
12:20 PM66 °FPassing clouds.12 mph56%30.04 "HgN/A
11:50 AM66 °FPassing clouds.13 mph60%30.04 "HgN/A
11:20 AM66 °FPassing clouds.14 mph60%30.04 "HgN/A
10:50 AM66 °FPassing clouds.15 mph64%30.04 "HgN/A
10:20 AM64 °FScattered clouds.14 mph64%30.04 "HgN/A
9:50 AM63 °FScattered clouds.13 mph73%30.07 "HgN/A
9:20 AM63 °FPassing clouds.10 mph77%30.07 "HgN/A
8:50 AM61 °FPassing clouds.10 mph77%30.07 "HgN/A
8:20 AM61 °FPassing clouds.10 mph83%30.07 "HgN/A
7:50 AM59 °FPassing clouds.8 mph82%30.07 "HgN/A
7:20 AM57 °FSunny.8 mph88%30.07 "Hg10 mi
6:50 AM55 °FPassing clouds.7 mph94%30.04 "HgN/A
6:20 AM55 °FPassing clouds.6 mph88%30.04 "HgN/A
5:50 AM54 °FPassing clouds.5 mph94%30.04 "HgN/A
5:20 AM54 °FPassing clouds.5 mph94%30.04 "HgN/A
4:50 AM54 °FPassing clouds.5 mph94%30.04 "HgN/A
4:20 AM55 °FPassing clouds.6 mph88%30.04 "HgN/A
3:50 AM54 °FPassing clouds.6 mph94%30.04 "HgN/A
3:20 AM55 °FPassing clouds.6 mph88%30.04 "HgN/A
2:50 AM55 °FClear.5 mph88%30.04 "Hg10 mi
2:20 AM55 °FClear.6 mph88%30.04 "Hg10 mi
1:50 AM55 °FPassing clouds.6 mph82%30.04 "HgN/A
1:20 AM54 °FClear.3 mph88%30.04 "Hg10 mi
12:50 AM55 °FPassing clouds.5 mph88%30.04 "HgN/A
12:20 AM55 °FClear.5 mph88%30.04 "Hg10 mi
11:50 PM
Sun, Jun 26
55 °FPassing clouds.3 mph88%30.04 "HgN/A
11:20 PM55 °FClear.3 mph88%30.04 "Hg10 mi
10:50 PM57 °FClear.2 mph82%30.04 "Hg10 mi
10:20 PM57 °FSunny.5 mph82%30.04 "Hg10 mi
Weather by CustomWeather, © 2016

See weather overviewHow to use our weather pages